Regional Weather Roundup
Issued by NWS

Home | Current Version | Previous Version | Graphics & Text | Print | Product List | Glossary On
Versions: 1 2 3 4 5 6 7 8 9 10 11 12 13 14 15 16 17 18 19 20 21 22 23 24 25 26 27 28 29 30 31 32 33 34 35 36 37 38 39 40 41 42 43 44 45 46 47 48 49 50
117
ASUS44 KMEG 110300
RWRTN
TENNESSEE HOURLY STATE WEATHER ROUNDUP
NATIONAL WEATHER SERVICE MEMPHIS TN
900 PM CST WED FEB 10 2016

TNZ002-004-019-021-049-052-054-088>092-110400-
WEST TENNESSEE

CITY           SKY/WX    TMP DP  RH WIND       PRES   REMARKS
MEMPHIS INTL   CLEAR     37  18  46 E7        30.13R WCI  32
NWS MEMPHIS      N/A     34 N/A N/A MISG        N/A
JACKSON        CLEAR     27  11  51 E5        30.18R WCI  22
DYERSBURG      CLEAR     28  10  47 E7        30.19S WCI  21
UNION CITY     CLOUDY    27  12  54 E6        30.17S WCI  20
PARIS          CLOUDY    23  16  74 E5        30.19R WCI  17
$$

TNZ008-025-027-028-033-062-065-066-110400-
NORTH MIDDLE TENNESSEE

CITY           SKY/WX    TMP DP  RH WIND       PRES   REMARKS
NASHVILLE      FLURRIES  26  19  74 W3        30.22S
CLARKSVILLE    CLOUDY    24  20  84 CALM      30.20S
COOKEVILLE     MOCLDY    25  19  80 W7        30.15F WCI  17
CROSSVILLE     LGT SNOW  22  16  78 W13       30.11R WCI  10
$$

TNZ061-075-076-078-094-096-097-110400-
SOUTH MIDDLE TENNESSEE

CITY           SKY/WX    TMP DP  RH WIND       PRES   REMARKS
TULLAHOMA      CLOUDY    25  23  93 CALM      30.18R
WINCHESTER     CLOUDY    27  19  74 N3        30.19R
MCMINNVILLE    MOCLDY    23  21  93 W5        30.18S WCI  17
COLUMBIA       CLOUDY    27  25  93 NE3       30.18S
SHELBYVILLE    CLOUDY    27  21  80 CALM      30.20S
$$

TNZ017-018-042-046-047-110400-
NORTHEAST TENNESSEE

CITY           SKY/WX    TMP DP  RH WIND       PRES   REMARKS
TRI CITIES     MOCLDY    20   6  55 NW5       30.10R WCI  13
$$

TNZ012-013-036-069-073-074-110400-
CENTRAL EAST TENNESSEE

CITY           SKY/WX    TMP DP  RH WIND       PRES   REMARKS
KNOXVILLE      CLOUDY    26   9  48 W13       30.16R WCI  15
OAK RIDGE      CLOUDY    27   9  46 CALM      30.17R
GATLINBURG     CLOUDY    25   3  39 W10       30.15R WCI  15
$$

TNZ083-085-099-110400-
SOUTHEAST TENNESSEE

CITY           SKY/WX    TMP DP  RH WIND       PRES   REMARKS
CHATTANOOGA    CLOUDY    30  18  60 N5        30.20R WCI  25
$$

SKY/WX REPORTED AS FAIR MEANS FEW OR NO CLOUDS BELOW
12 THOUSAND FEET.





USA.gov is the U.S. government's official web portal to all federal, state and local government web resources and services.